Regional Weather Roundup
Issued by NWS Kansas City/Pleasant Hill, MO

Home | Current Version | Previous Version | Graphics & Text | Print | Product List | Glossary Off
Versions: 1 2 3 4 5 6 7 8 9 10 11 12 13 14 15 16 17 18 19 20 21 22 23 24 25 26 27 28

000
ASUS43 KEAX 210810
RWREAX

WEATHER ROUNDUP FOR EASTERN KANSAS AND NORTHWEST MISSOURI
NATIONAL WEATHER SERVICE KANSAS CITY/PLEASANT HILL MO
300 AM CDT MON AUG 21 2017

KSZ040-057-103>105-MOZ028-029-037-043-210900-
...KANSAS CITY METROPOLITAN AREA...

CITY           SKY/WX    TMP DP  RH WIND       PRES   REMARKS
K.C. INTL      CLEAR     74  69  85 S10       29.99S
K.C. DOWNTOWN  CLEAR     79  70  74 S7        29.98S
LEES SUMMIT    CLEAR     77  68  73 SW13      30.01R
OLATHE - IXD   CLEAR     75  67  76 S12       30.00F
OLATHE - OJC   PTCLDY    74  68  81 S9        30.00F
LAWRENCE       CLEAR     76  71  85 SE8       29.99S

$$

MOZ001>008-011>017-020>025-030>033-038>040-044>046-053-054-210900-
...NORTHERN AND CENTRAL MISSOURI...

CITY           SKY/WX    TMP DP  RH WIND       PRES   REMARKS
ST. JOSEPH     CLEAR     76  71  85 S9        29.96S
WARRENSBURG    CLEAR     70  64  83 SE5       30.01R
WHITEMAN AFB   PTCLDY    71  70  98 S6        30.01R
CLINTON        CLEAR     68  66  94 SE3       30.03S
SEDALIA        PTCLDY    73  65  75 S7        30.04S
WARSAW         NOT AVBL
CHILLICOTHE      N/A     71  68  90 CALM      30.01S
KIRKSVILLE     CLEAR     69  67  93 SE3       30.03F

$$

MOZ041-047>049-056>058-063>065-088>090-097-210900-
...EASTERN AND SOUTHERN MISSOURI...

CITY           SKY/WX    TMP DP  RH WIND       PRES   REMARKS
ST. LOUIS INTL CLOUDY    79  74  84 S6        30.06F
SPIRIT OF STL  PTCLDY    73  73 100 CALM      30.04F
COLUMBIA       PTCLDY    72  71  97 CALM      30.05R
JEFFERSON CITY PTCLDY    73  73 100 CALM      30.03S
ROLLA          CLEAR     74  72  93 S8        30.08F
OSAGE BEACH    PTCLDY    72  68  87 S7        30.06S
SPRINGFIELD    CLEAR     71  70  96 S12       30.06F
BRANSON        CLEAR     75  73  94 S6        30.10F
JOPLIN         CLOUDY    77  72  84 SE5       30.05F
WEST PLAINS    CLEAR     75  71  87 SW6       30.11F

$$

IAZ060-094-KSZ022-034>040-054-083-096-NEZ052-066-093-210900-
...KANSAS...SOUTHEAST NEBRASKA AND IOWA...

CITY           SKY/WX    TMP DP  RH WIND       PRES   REMARKS
TOPEKA         CLEAR     77  73  87 S7        29.97F
MANHATTAN      CLEAR     79  72  79 SW9       29.95F
EMPORIA        PTCLDY    76  72  87 S12       30.00F
CHANUTE        PTCLDY    74  72  93 SE7       30.02F
WICHITA        CLOUDY    79  73  82 S8        30.00F
OMAHA          MOCLDY    70  61  73 NE25G37   30.01R
LINCOLN        CLEAR     80  71  74 S10       29.91S
FALLS CITY     CLEAR     80  73  79 S13G22    29.93S
LAMONI         CLOUDY    70  66  87 VRB5      29.99F
DES MOINES     TSTM      70  67  90 NW14      30.04R

$$





USA.gov is the U.S. government's official web portal to all federal, state and local government web resources and services.